Weather in Dubrovno

Russia / Pskov Oblast     57°55′31″N   29°21′52″E
temp.,
°C
wind,
m/s
gust,
m/s
humid.,
%
clouds,
%
prec.,
mm/h
press.,
hPa
HPBL,
m
6 august, fri
fri600:00+11nne269934 0.0 1014217
03:00+10nne289955 0.0 1014267
06:00+12nne3109866 0.0 1013445
09:00+14ne488458 0.1 1012717
12:00+18ene5767100 0.1 10121182
15:00+19ene5760100 0.2 10101405
18:00+18ene4865100 0.0 10091158
21:00+14ne51181100 0.0 1009516
7 august, sat
sat700:00+14ne41389100 0.0 1008518
03:00+14ene41295100 0.0 1006516
06:00+15ene41196100 0.0 1005562
09:00+16ene4998100 0.3 1004531
12:00+16ene3799100 0.3 1004398
15:00+18se259798 0.8 1004306
18:00+20sw258953 2.0 1004550
21:00+15s3894100 2.5 1006229
8 august, sun
sun800:00+13s2695100 0.0 1007216
03:00+13s2599100 0.2 1008217
06:00+13s2699100 0.4 1009256
09:00+15ssw249677 0.5 1010351
12:00+19sw347582 0.2 1011864
15:00+21ssw246497 0.3 1012865
18:00+21s2369100 0.0 1012300
21:00+18s2383100 0.0 101363
9 august, mon
mon900:00+15sse2296100 0.0 101439
03:00+14se279636 0.0 1013142
06:00+15se389533 0.4 1012235
09:00+19ssw478785 0.4 1013589
12:00+18ssw4988100 0.1 1014618
15:00+21sw4774100 0.4 10151009
18:00+23wsw37575 0.1 10161349
21:00+17sw2583100 0.4 1017115
10 august, tue
tue1000:00+15sw2292100 0.0 101733
03:00+13sw23970 0.0 101853
06:00+12wsw239833 0.0 101957
09:00+18sw237321 0.0 1019460
12:00+22sw235694 0.0 10191331
15:00+24wsw224679 0.0 10181676
18:00+23sw1251100 0.0 10171640
21:00+18nnw1172100 0.0 101717